Snowfall_Accumulation
0.0 0.0 0.0 0.0 0.0 0.0 0.0 0.0 0.0 0.0 0.0 0.0 0.0 0.0 0.0 0.0 0.0 0.0 0.0 0.0 0.0 0.0 0.0 0.0 0.0 0.0 0.0
0.4 0.5 0.3 0.0 0.0 0.0 0.0 0.0 0.0 0.0 0.0 0.0 0.0 0.0 0.0 0.0 0.0 0.0 0.0 0.0 0.0 0.0 0.0 0.0 0.0 0.0 0.0
1.0 0.1 0.3 0.0 1.3 0.1 0.0 0.0 0.0 0.0 0.0 0.0 0.0 0.0 0.0 0.0 0.0 0.0 0.0 0.0 0.0 0.0 0.0 0.0 0.0 0.0 0.0
0.7 0.5 0.9 0.6 0.4 0.7 0.4 0.2 0.5 0.0 0.0 0.0 0.0 0.0 0.0 0.0 0.0 0.0 0.0 0.0 0.0 0.0 0.0 0.0 0.0 0.0 0.0
2.5 1.3 0.5 0.3 0.3 0.2 0.9 0.6 1.4 0.3 0.5 0.9 0.3 0.3 0.0 0.0 0.0 0.0 0.0 0.0 0.0 0.0 0.0 0.0 0.0 0.0 0.0
3.3 1.3 0.2 0.1 0.2 0.4 2.3 4.9 8.1 0.0 4.6 2.5 0.3 1.0 0.1 0.0 0.0 0.0 0.0 0.0 0.0 0.0 0.0 0.0 0.0 0.0 0.0
1.4 0.3 0.3 0.2 1.5 2.5 2.7 5.1 6.8 3.0 5.7 5.1 1.0 1.9 0.0 0.0 0.0 0.0 0.0 0.0 0.0 0.0 0.0 0.0 0.0 0.0 0.0
0.1 0.3 0.7 0.3 1.1 2.0 2.1 2.5 1.3 1.4 5.6 13.9 2.9 2.0 0.3 0.0 0.0 0.1 0.0 0.0 0.0 0.0 0.0 0.0 0.0 0.0 0.0
0.1 0.0 0.0 0.0 0.0 0.9 4.0 6.8 6.7 4.3 5.6 10.2 4.9 6.2 0.8 0.4 0.1 0.0 0.0 0.0 0.0 0.0 0.0 0.0 0.0 0.0 0.0
0.0 0.0 0.0 0.0 0.0 0.0 2.0 12.9 11.9 9.7 2.8 11.7 7.4 9.4 12.1 0.2 0.2 0.0 0.2 0.1 0.0 0.0 0.0 0.0 0.0 0.2 0.5
0.3 0.1 0.0 0.0 0.7 0.5 0.2 4.8 15.1 13.9 2.0 13.4 17.8 10.0 17.9 8.5 0.4 0.2 0.3 0.2 0.2 0.1 0.0 0.0 0.4 0.7 2.9
1.3 1.0 0.8 0.3 0.1 0.4 0.4 0.2 0.6 6.5 4.2 6.7 28.7 17.9 28.0 20.2 2.8 1.1 0.5 0.1 0.5 0.8 0.4 0.8 0.8 0.8 0.5
1.3 0.7 0.3 0.6 0.9 1.4 1.1 1.3 1.2 1.5 2.7 4.6 12.5 17.0 26.1 30.2 12.7 2.1 2.8 0.5 0.1 1.7 2.3 2.7 2.6 2.7 3.9
2.2 1.6 1.7 1.1 1.5 1.0 2.5 2.8 6.3 5.8 2.8 3.9 6.6 15.4 27.0 15.1 17.6 8.4 2.1 7.2 1.1 1.3 3.0 2.1 1.5 1.8 2.3
2.9 3.9 3.1 3.0 2.4 2.0 3.1 4.5 9.8 6.4 7.2 8.8 8.0 10.4 14.1 19.7 16.0 11.0 6.1 5.9 4.4 5.1 5.2 4.3 0.7 1.4 1.8
4.5 4.5 7.5 6.0 5.7 6.3 5.4 7.4 11.9 10.2 11.8 12.0 11.7 16.2 16.9 19.2 13.4 14.6 11.2 9.0 7.5 7.5 6.0 10.8 6.5 3.1 2.9
10.7 9.6 10.9 10.7 9.5 8.3 8.0 9.4 12.2 12.5 14.7 13.9 18.3 23.8 35.1 27.8 24.9 12.6 26.0 15.4 13.1 12.5 7.2 7.7 8.8 4.8 2.4